Flag for Bahrain Weather past 2 weeks in Riffa, Bahrain

Now
91 °F

Clear.


Feels Like: 100 °F
Forecast: 91 / 100 °F
Wind: 15 mph from Northwest

Location: Bahrain International Airport

Current Time: Jun 30, 2015 at 11:50:57 PM

Latest Report: Jun 30, 2015 at 11:00 PM


Visibility: 10 mi

Pressure: 29.59 "Hg

Humidity: 56%

Dew point: 73 °F

Location of RiffaLocation

Historic Weather in Riffa — Graph

°F

Riffa temperature yesterday

Maximum temperature yesterday: 102 °F (at 12:00 PM)
Minimum temperature yesterday: 91 °F (at 12:00 AM)
Average temperature yesterday: 97 °F

Past Weeks' High & Low Weather Summary

 TemperatureHumidityPressure
High106 °F (Jun 19, 12:00 PM)67% (Jun 19, 3:00 AM)29.65 "Hg (Jun 19, 3:00 AM)
Low88 °F (Jun 28, 4:00 AM)14% (Jun 24, 12:00 AM)29.42 "Hg (Jun 17, 2:00 PM)
Average95 °F38%29.51 "Hg
* Reported Jun 15 10:00 PM — Jun 30 10:00 PM, Riffa, Weather by CustomWeather, © 2015

Note: Actual official high and low records may vary slightly from our data, if they occured in-between our weather recording intervals... More about our weather records

Advertising

Riffa weather history for previous 24 hours

 ConditionsComfort  
Time TempWeatherWind HumidityBarometerVisibility
10:00 PM
Tue, Jun 30
91 °FClear.14 mph52%29.59 "Hg10 mi
9:00 PM93 °FClear.17 mph47%29.59 "Hg10 mi
8:00 PM93 °FClear.15 mph41%29.59 "Hg10 mi
7:00 PM93 °FClear.14 mph44%29.59 "Hg10 mi
6:00 PM95 °FSunny.14 mph44%29.62 "Hg10 mi
5:00 PM95 °FSunny.18 mph39%29.62 "Hg10 mi
4:00 PM97 °FSunny.20 mph37%29.62 "Hg10 mi
3:00 PM99 °FSunny.20 mph35%29.62 "Hg10 mi
2:00 PM97 °FSunny.22 mph39%29.62 "Hg10 mi
1:00 PM99 °FSunny.23 mph35%29.62 "Hg10 mi
12:00 PM99 °FSunny.22 mph35%29.65 "Hg10 mi
11:00 AM99 °FSunny.20 mph35%29.65 "Hg10 mi
10:00 AM99 °FSunny.22 mph33%29.65 "Hg10 mi
9:00 AM97 °FSunny.21 mph34%29.65 "Hg10 mi
8:00 AM97 °FSunny.18 mph39%29.65 "Hg10 mi
7:00 AM93 °FSunny.16 mph53%29.65 "Hg10 mi
6:00 AM91 °FSunny.14 mph63%29.62 "Hg10 mi
5:00 AM91 °FSunny.13 mph56%29.59 "Hg10 mi
4:00 AM93 °FClear.13 mph41%29.59 "Hg10 mi
3:00 AM93 °FClear.8 mph34%29.59 "Hg10 mi
2:00 AM95 °FClear.12 mph23%29.59 "Hg10 mi
1:00 AM97 °FClear.10 mph25%29.56 "Hg10 mi
12:00 AM97 °FClear.12 mph23%29.59 "Hg10 mi
11:00 PM
Mon, Jun 29
99 °FClear.10 mph18%29.59 "Hg10 mi
Weather by CustomWeather, © 2015

See weather overviewHow to use our weather pages